Location: Unspecified
(0.0000°N, 0.0000°E)
Time: 11:18:59
(UTC+00:00)

Transit 4A - Pass Details

Date: 20 November 2019
Orbit: 870 x 975 km, 66.8° (Epoch: 13 December)

Event Time Altitude Azimuth Distance (km) Brightness Sun altitude
Rises 18:36:59 0° 165° (SSE) 3,666 11.1 -12.1°
Reaches altitude 10° 18:40:58 10° 141° (SE) 2,718 10.2 -13.0°
Maximum altitude 18:44:10 14° 111° (ESE) 2,414 9.6 -13.8°
Enters shadow 18:45:09 14° 100° (E) 2,442 9.6 -14.0°
Drops below altitude 10° 18:47:21 10° 80° (E) 2,705 - -14.5°
Sets 18:51:14 0° 56° (ENE) 3,636 - -15.4°
